EW2821 Weather Reports


Display with metric or nautical units.
time (UTC)temp
F
wind
direction
speed
MPH
gust
MPH
rain 1hr
in
rain 24hr
in
rain mn
in
humidity
%
barometer
mb
20260902234530 86 209 4.0 6.0 0.00 0.00 0.00 75 1016.1
20260902233044 87 201 3.0 6.0 0.00 0.00 0.00 73 1016.0
20260902231530 88 215 3.0 7.0 0.00 0.00 0.00 72 1016.0
20260902230029 89 213 5.0 8.0 0.00 0.00 0.00 68 1016.0
20260902224529 89 198 4.0 13.0 0.00 0.00 0.00 67 1016.1
20260902223028 90 223 6.0 10.0 0.00 0.00 0.00 66 1016.0
20260902221527 90 205 5.0 13.0 0.00 0.00 0.00 67 1016.1
20260902220041 90 226 6.0 12.0 0.00 0.00 0.00 65 1016.1
20260902214545 91 215 7.0 16.0 0.00 0.00 0.00 63 1016.2
20260902213024 91 198 7.0 14.0 0.00 0.00 0.00 64 1016.2
20260902211524 91 215 8.0 14.0 0.00 0.00 0.00 64 1016.2
20260902210025 91 195 4.0 12.0 0.00 0.00 0.00 64 1016.3
20260902204521 92 212 8.0 17.0 0.00 0.00 0.00 62 1016.4
20260902203020 92 215 5.0 12.0 0.00 0.00 0.00 62 1016.6
20260902201531 91 201 10.0 16.0 0.00 0.00 0.00 63 1016.7
20260902200015 91 209 6.0 15.0 0.00 0.00 0.00 63 1016.8
20260902194513 91 210 8.0 14.0 0.00 0.00 0.00 64 1017.0
20260902193012 91 257 10.0 16.0 0.00 0.00 0.00 62 1017.2
20260902191517 91 191 6.0 14.0 0.00 0.00 0.00 64 1017.3
20260902190009 91 201 5.0 12.0 0.00 0.00 0.00 64 1017.3
20260902184513 91 216 6.0 14.0 0.00 0.00 0.00 63 1017.5
20260902183013 91 236 6.0 14.0 0.00 0.00 0.00 63 1017.6
20260902181507 90 256 7.0 11.0 0.00 0.00 0.00 63 1017.7
20260902180006 90 272 6.0 10.0 0.00 0.00 0.00 66 1017.8
20260902174502 90 218 7.0 13.0 0.00 0.00 0.00 65 1017.9
20260902173002 90 213 8.0 12.0 0.00 0.00 0.00 66 1018.1
20260902171610 89 272 5.0 10.0 0.00 0.00 0.00 66 1018.1
20260902170059 89 247 7.0 12.0 0.00 0.00 0.00 65 1018.2
20260902164557 89 267 6.0 13.0 0.00 0.00 0.00 66 1018.3
20260902163052 89 213 3.0 12.0 0.00 0.00 0.00 69 1018.5
20260902161548 88 256 4.0 10.0 0.00 0.00 0.00 72 1018.4
20260902160059 87 280 6.0 10.0 0.00 0.00 0.00 71 1018.5
20260902154545 87 266 3.0 8.0 0.00 0.00 0.00 73 1018.6
20260902153042 86 246 4.0 10.0 0.00 0.00 0.00 72 1018.5
20260902151534 86 246 5.0 9.0 0.00 0.00 0.00 74 1018.5
20260902150030 85 228 5.0 9.0 0.00 0.00 0.00 73 1018.5
20260902144526 84 249 3.0 12.0 0.00 0.00 0.00 75 1018.5
20260902143023 83 248 3.0 10.0 0.00 0.00 0.00 78 1018.6
20260902141516 82 284 5.0 10.0 0.00 0.00 0.00 78 1018.6
20260902140012 81 279 4.0 9.0 0.00 0.00 0.00 80 1018.6
20260902134508 80 266 4.0 7.0 0.00 0.00 0.00 83 1018.6
20260902133003 78 266 0.0 6.0 0.00 0.00 0.00 88 1018.8
20260902131615 77 229 0.0 4.0 0.00 0.00 0.00 93 1018.7
20260902130055 75 190 0.0 2.0 0.00 0.00 0.00 97 1018.7
20260902124603 72 190 0.0 2.0 0.00 0.00 0.00 97 1018.8
20260902123116 70 190 0.0 0.0 0.00 0.00 0.00 97 1018.9
20260902121548 68 190 0.0 0.0 0.00 0.00 0.00 97 1018.8
20260902120040 67 190 0.0 0.0 0.00 0.00 0.00 97 1018.6
20260902114542 67 190 0.0 0.0 0.00 0.00 0.00 97 1018.5
20260902113035 67 190 0.0 0.0 0.00 0.00 0.00 97 1018.3
20260902111542 67 190 0.0 0.0 0.00 0.00 0.00 97 1018.1
20260902110031 67 190 0.0 0.0 0.00 0.00 0.00 97 1018.0
20260902104529 67 190 0.0 0.0 0.00 0.00 0.00 97 1017.9
20260902103032 67 190 0.0 0.0 0.00 0.00 0.00 97 1017.9
20260902101528 67 190 0.0 0.0 0.00 0.00 0.00 96 1017.8
20260902100031 67 190 0.0 0.0 0.00 0.00 0.00 97 1017.7
20260902094524 68 190 0.0 1.0 0.00 0.00 0.00 96 1017.8
20260902093024 68 190 0.0 1.0 0.00 0.00 0.00 97 1017.7
20260902091523 68 190 0.0 0.0 0.00 0.00 0.00 96 1017.7
20260902090032 68 190 0.0 0.0 0.00 0.00 0.00 96 1017.6
20260902084520 68 190 0.0 1.0 0.00 0.00 0.00 96 1017.5
20260902083020 68 190 0.0 1.0 0.00 0.00 0.00 96 1017.4
20260902081518 68 190 0.0 0.0 0.00 0.00 0.00 96 1017.4
20260902080018 68 190 0.0 0.0 0.00 0.00 0.00 96 1017.3
20260902074517 69 190 0.0 0.0 0.00 0.00 0.00 96 1017.3
20260902073015 69 190 0.0 0.0 0.00 0.00 0.00 96 1017.3
20260902071515 69 190 0.0 0.0 0.00 0.00 0.00 96 1017.2
20260902070013 69 190 0.0 0.0 0.00 0.00 0.00 96 1017.3
20260902064522 70 190 0.0 1.0 0.00 0.00 0.00 95 1017.4
20260902063010 70 190 0.0 0.0 0.00 0.00 0.00 95 1017.4
20260902061508 70 190 0.0 1.0 0.00 0.00 0.00 95 1017.5
20260902060008 71 190 0.0 0.0 0.00 0.00 0.00 95 1017.5
20260902054506 71 190 0.0 0.0 0.00 0.00 0.00 94 1017.6
20260902053005 72 190 0.0 0.0 0.00 0.00 0.00 94 1017.5
20260902051501 72 190 0.0 1.0 0.00 0.00 0.00 94 1017.3
20260902050101 73 190 0.0 1.0 0.00 0.00 0.00 95 1017.4
20260902044600 72 190 1.0 3.0 0.00 0.00 0.00 95 1017.4
20260902043101 72 190 0.0 1.0 0.00 0.00 0.00 94 1017.5
20260902041601 73 190 0.0 2.0 0.00 0.00 0.00 95 1017.5
20260902040054 73 190 0.0 2.0 0.00 0.00 0.00 96 1017.4
20260902034554 72 190 0.0 0.0 0.00 0.00 0.00 95 1017.5
20260902033052 73 190 0.0 0.0 0.00 0.00 0.00 95 1017.5
20260902031553 73 190 0.0 0.0 0.00 0.00 0.00 94 1017.5
20260902030051 73 190 0.0 0.0 0.00 0.00 0.00 94 1017.5
20260902024551 74 190 0.0 0.0 0.00 0.00 0.00 93 1017.6
20260902023050 74 190 0.0 0.0 0.00 0.00 0.00 92 1017.5
20260902021552 75 190 0.0 0.0 0.00 0.00 0.00 92 1017.5
20260902020055 76 190 0.0 0.0 0.00 0.00 0.00 90 1017.4
20260902014549 77 190 0.0 0.0 0.00 0.00 0.00 89 1017.2
20260902013049 78 190 0.0 0.0 0.00 0.00 0.00 88 1017.2
20260902011548 78 190 0.0 1.0 0.00 0.00 0.00 88 1017.0
20260902010047 78 190 0.0 2.0 0.00 0.00 0.00 87 1016.8
20260902004547 79 190 0.0 0.0 0.00 0.00 0.00 86 1016.8
20260902003047 81 190 0.0 2.0 0.00 0.00 0.00 85 1016.8
20260902001546 82 190 1.0 3.0 0.00 0.00 0.00 81 1016.8
20260902000052 84 194 1.0 3.0 0.00 0.00 0.00 79 1016.9